| time (UTC) | temp F | wind direction | speed MPH | gust MPH | rain 1hr in | rain 24hr in | rain mn in | humidity % | barometer mb |
| 20260504190511 | 72 | 203 | 3.0 | 9.0 | 0.00 | 0.00 | 0.00 | 21 | 1007.4 |
| 20260504190029 | 72 | 319 | 3.0 | 10.0 | 0.00 | 0.00 | 0.00 | 22 | 1007.5 |
| 20260504185513 | 71 | 275 | 3.0 | 10.0 | 0.00 | 0.00 | 0.00 | 22 | 1007.5 |
| 20260504185004 | 71 | 250 | 3.0 | 11.0 | 0.00 | 0.00 | 0.00 | 22 | 1007.5 |
| 20260504184518 | 71 | 192 | 2.0 | 11.0 | 0.00 | 0.00 | 0.00 | 22 | 1007.6 |
| 20260504184009 | 71 | 271 | 3.0 | 7.0 | 0.00 | 0.00 | 0.00 | 21 | 1007.8 |
| 20260504183513 | 71 | 275 | 2.0 | 13.0 | 0.00 | 0.00 | 0.00 | 22 | 1007.9 |
| 20260504183025 | 71 | 235 | 3.0 | 13.0 | 0.00 | 0.00 | 0.00 | 23 | 1007.9 |
| 20260504182510 | 71 | 253 | 2.0 | 14.0 | 0.00 | 0.00 | 0.00 | 22 | 1008.0 |
| 20260504182012 | 71 | 250 | 3.0 | 14.0 | 0.00 | 0.00 | 0.00 | 23 | 1008.2 |
| 20260504181525 | 71 | 347 | 4.0 | 12.0 | 0.00 | 0.00 | 0.00 | 23 | 1008.2 |
| 20260504181010 | 70 | 342 | 2.0 | 10.0 | 0.00 | 0.00 | 0.00 | 24 | 1008.4 |
| 20260504180509 | 70 | 294 | 5.0 | 12.0 | 0.00 | 0.00 | 0.00 | 24 | 1008.6 |
| 20260504180021 | 70 | 298 | 3.0 | 12.0 | 0.00 | 0.00 | 0.00 | 24 | 1008.5 |
| 20260504175507 | 69 | 291 | 2.0 | 15.0 | 0.00 | 0.00 | 0.00 | 25 | 1008.7 |
| 20260504175011 | 69 | 215 | 6.0 | 15.0 | 0.00 | 0.00 | 0.00 | 25 | 1008.7 |
| 20260504174526 | 70 | 342 | 5.0 | 12.0 | 0.00 | 0.00 | 0.00 | 24 | 1008.8 |
| 20260504174008 | 70 | 289 | 3.0 | 14.0 | 0.00 | 0.00 | 0.00 | 25 | 1008.9 |
| 20260504173511 | 69 | 277 | 4.0 | 14.0 | 0.00 | 0.00 | 0.00 | 25 | 1008.9 |
| 20260504173018 | 69 | 321 | 5.0 | 13.0 | 0.00 | 0.00 | 0.00 | 25 | 1008.9 |
| 20260504172508 | 69 | 273 | 5.0 | 13.0 | 0.00 | 0.00 | 0.00 | 25 | 1009.1 |
| 20260504172010 | 69 | 309 | 2.0 | 11.0 | 0.00 | 0.00 | 0.00 | 27 | 1009.2 |
| 20260504171521 | 68 | 288 | 3.0 | 11.0 | 0.00 | 0.00 | 0.00 | 26 | 1009.3 |
| 20260504171014 | 68 | 292 | 3.0 | 9.0 | 0.00 | 0.00 | 0.00 | 27 | 1009.3 |
| 20260504170512 | 67 | 352 | 3.0 | 9.0 | 0.00 | 0.00 | 0.00 | 27 | 1009.4 |
| 20260504151002 | 62 | 221 | 0.0 | 6.0 | 0.00 | 0.00 | 0.00 | 30 | 1009.8 |
| 20260504150502 | 62 | 235 | 1.0 | 6.0 | 0.00 | 0.00 | 0.00 | 29 | 1009.8 |
| 20260504141004 | 51 | 281 | 1.0 | 4.0 | 0.00 | 0.00 | 0.00 | 45 | 1009.8 |
| 20260504140502 | 50 | 257 | 1.0 | 4.0 | 0.00 | 0.00 | 0.00 | 50 | 1009.8 |
| 20260504130505 | 44 | 165 | 0.0 | 2.0 | 0.00 | 0.00 | 0.00 | 57 | 1009.6 |
| 20260504110505 | 41 | 179 | 0.0 | 2.0 | 0.00 | 0.00 | 0.00 | 60 | 1009.5 |
| 20260504100502 | 41 | 171 | 0.0 | 2.0 | 0.00 | 0.00 | 0.00 | 58 | 1009.8 |
| 20260504082008 | 46 | 187 | 0.0 | 2.0 | 0.00 | 0.00 | 0.00 | 48 | 1010.7 |
| 20260504081523 | 46 | 192 | 1.0 | 2.0 | 0.00 | 0.00 | 0.00 | 47 | 1010.7 |
| 20260504081006 | 46 | 212 | 0.0 | 2.0 | 0.00 | 0.00 | 0.00 | 47 | 1010.8 |
| 20260504080503 | 46 | 229 | 0.0 | 2.0 | 0.00 | 0.00 | 0.00 | 45 | 1010.9 |
| 20260504050509 | 61 | 296 | 1.0 | 7.0 | 0.00 | 0.00 | 0.00 | 28 | 1011.0 |
| 20260504050024 | 61 | 223 | 2.0 | 7.0 | 0.00 | 0.00 | 0.00 | 27 | 1011.0 |
| 20260504045510 | 61 | 247 | 2.0 | 7.0 | 0.00 | 0.00 | 0.00 | 27 | 1011.0 |
| 20260504045011 | 62 | 273 | 1.0 | 9.0 | 0.00 | 0.00 | 0.00 | 27 | 1011.1 |
| 20260504044508 | 62 | 257 | 2.0 | 9.0 | 0.00 | 0.00 | 0.00 | 27 | 1011.1 |
| 20260504044003 | 62 | 215 | 3.0 | 8.0 | 0.00 | 0.00 | 0.00 | 27 | 1011.2 |
| 20260504043504 | 62 | 232 | 2.0 | 9.0 | 0.00 | 0.00 | 0.00 | 27 | 1011.2 |
| 20260504043019 | 62 | 82 | 2.0 | 9.0 | 0.00 | 0.00 | 0.00 | 27 | 1011.2 |
| 20260504042508 | 62 | 223 | 3.0 | 9.0 | 0.00 | 0.00 | 0.00 | 27 | 1011.2 |
| 20260504042011 | 62 | 269 | 2.0 | 10.0 | 0.00 | 0.00 | 0.00 | 27 | 1011.3 |
| 20260504041525 | 62 | 277 | 2.0 | 10.0 | 0.00 | 0.00 | 0.00 | 27 | 1011.3 |
| 20260504041008 | 62 | 274 | 5.0 | 10.0 | 0.00 | 0.00 | 0.00 | 27 | 1011.4 |
| 20260504040504 | 62 | 267 | 4.0 | 10.0 | 0.00 | 0.00 | 0.00 | 27 | 1011.4 |
| 20260504040012 | 63 | 258 | 2.0 | 9.0 | 0.00 | 0.00 | 0.00 | 27 | 1011.4 |
| 20260504035507 | 63 | 321 | 2.0 | 9.0 | 0.00 | 0.00 | 0.00 | 27 | 1011.5 |
| 20260504035008 | 63 | 307 | 3.0 | 8.0 | 0.00 | 0.00 | 0.00 | 27 | 1011.5 |
| 20260504034535 | 63 | 265 | 2.0 | 8.0 | 0.00 | 0.00 | 0.00 | 27 | 1011.6 |
| 20260504034008 | 63 | 234 | 3.0 | 8.0 | 0.00 | 0.00 | 0.00 | 27 | 1011.5 |
| 20260504033512 | 63 | 288 | 2.0 | 7.0 | 0.00 | 0.00 | 0.00 | 27 | 1011.5 |
| 20260504033030 | 63 | 237 | 2.0 | 7.0 | 0.00 | 0.00 | 0.00 | 27 | 1011.6 |
| 20260504032503 | 63 | 214 | 1.0 | 7.0 | 0.00 | 0.00 | 0.00 | 27 | 1011.5 |
| 20260504032004 | 63 | 241 | 1.0 | 6.0 | 0.00 | 0.00 | 0.00 | 27 | 1011.6 |
| 20260504031516 | 63 | 221 | 1.0 | 6.0 | 0.00 | 0.00 | 0.00 | 27 | 1011.6 |
| 20260504031007 | 63 | 214 | 0.0 | 4.0 | 0.00 | 0.00 | 0.00 | 26 | 1011.6 |
| 20260504030510 | 64 | 223 | 1.0 | 4.0 | 0.00 | 0.00 | 0.00 | 26 | 1011.5 |
| 20260504030036 | 64 | 219 | 1.0 | 5.0 | 0.00 | 0.00 | 0.00 | 25 | 1011.5 |
| 20260504025509 | 64 | 216 | 0.0 | 6.0 | 0.00 | 0.00 | 0.00 | 25 | 1011.4 |
| 20260504025011 | 64 | 246 | 2.0 | 6.0 | 0.00 | 0.00 | 0.00 | 25 | 1011.4 |
| 20260504024510 | 65 | 223 | 1.0 | 3.0 | 0.00 | 0.00 | 0.00 | 25 | 1011.4 |
| 20260504024008 | 65 | 252 | 1.0 | 2.0 | 0.00 | 0.00 | 0.00 | 24 | 1011.3 |
| 20260504023507 | 65 | 183 | 0.0 | 2.0 | 0.00 | 0.00 | 0.00 | 24 | 1011.2 |
| 20260504023020 | 65 | 194 | 1.0 | 2.0 | 0.00 | 0.00 | 0.00 | 1011.2 | |
| 20260504022511 | 66 | 240 | 0.0 | 2.0 | 0.00 | 0.00 | 0.00 | 1011.2 | |
| 20260504022011 | 66 | 40 | 0.0 | 2.0 | 0.00 | 0.00 | 0.00 | 22 | 1011.1 |
| 20260504021525 | 66 | 326 | 0.0 | 2.0 | 0.00 | 0.00 | 0.00 | 22 | 1011.1 |
| 20260504021009 | 67 | 213 | 0.0 | 3.0 | 0.00 | 0.00 | 0.00 | 22 | 1011.1 |
| 20260504020505 | 67 | 9 | 0.0 | 3.0 | 0.00 | 0.00 | 0.00 | 22 | 1011.1 |
| 20260504020011 | 67 | 350 | 1.0 | 3.0 | 0.00 | 0.00 | 0.00 | 22 | 1011.0 |
| 20260504015505 | 67 | 270 | 0.0 | 3.0 | 0.00 | 0.00 | 0.00 | 22 | 1011.0 |
| 20260504015010 | 67 | 294 | 1.0 | 7.0 | 0.00 | 0.00 | 0.00 | 22 | 1010.9 |
| 20260504014525 | 67 | 246 | 1.0 | 8.0 | 0.00 | 0.00 | 0.00 | 22 | 1010.8 |
| 20260504014009 | 67 | 211 | 2.0 | 8.0 | 0.00 | 0.00 | 0.00 | 21 | 1010.7 |
| 20260504013507 | 67 | 280 | 1.0 | 6.0 | 0.00 | 0.00 | 0.00 | 22 | 1010.7 |
| 20260504013028 | 68 | 236 | 1.0 | 6.0 | 0.00 | 0.00 | 0.00 | 22 | 1010.7 |
| 20260504012506 | 68 | 248 | 2.0 | 7.0 | 0.00 | 0.00 | 0.00 | 22 | 1010.7 |
| 20260504012006 | 68 | 209 | 2.0 | 8.0 | 0.00 | 0.00 | 0.00 | 22 | 1010.7 |
| 20260504011518 | 68 | 261 | 2.0 | 8.0 | 0.00 | 0.00 | 0.00 | 22 | 1010.8 |
| 20260504011007 | 68 | 283 | 3.0 | 8.0 | 0.00 | 0.00 | 0.00 | 22 | 1010.8 |
| 20260504010508 | 69 | 212 | 1.0 | 11.0 | 0.00 | 0.00 | 0.00 | 22 | 1010.8 |
| 20260504010024 | 69 | 232 | 2.0 | 11.0 | 0.00 | 0.00 | 0.00 | 21 | 1010.8 |
| 20260504005510 | 69 | 287 | 3.0 | 10.0 | 0.00 | 0.00 | 0.00 | 21 | 1010.9 |
| 20260504005013 | 69 | 326 | 2.0 | 9.0 | 0.00 | 0.00 | 0.00 | 22 | 1011.1 |
| 20260504004511 | 69 | 283 | 3.0 | 9.0 | 0.00 | 0.00 | 0.00 | 22 | 1011.2 |
| 20260504004006 | 69 | 226 | 2.0 | 8.0 | 0.00 | 0.00 | 0.00 | 21 | 1011.2 |
| 20260504003511 | 69 | 275 | 2.0 | 3.0 | 0.00 | 0.00 | 0.00 | 22 | 1011.4 |
| 20260504003023 | 69 | 271 | 1.0 | 3.0 | 0.00 | 0.00 | 0.00 | 22 | 1011.5 |
| 20260504002510 | 69 | 278 | 1.0 | 3.0 | 0.00 | 0.00 | 0.00 | 22 | 1011.5 |
| 20260504002012 | 69 | 352 | 0.0 | 4.0 | 0.00 | 0.00 | 0.00 | 22 | 1011.6 |
| 20260504001508 | 69 | 337 | 1.0 | 5.0 | 0.00 | 0.00 | 0.00 | 22 | 1011.7 |
| 20260504001003 | 69 | 333 | 2.0 | 5.0 | 0.00 | 0.00 | 0.00 | 22 | 1011.6 |
| 20260504000510 | 69 | 352 | 1.0 | 3.0 | 0.00 | 0.00 | 0.00 | 22 | 1011.7 |
| 20260504000016 | 69 | 337 | 1.0 | 6.0 | 0.00 | 0.00 | 0.00 | 22 | 1011.6 |
| 20260503235507 | 69 | 34 | 3.0 | 6.0 | 0.00 | 0.00 | 0.00 | 22 | 1011.6 |
| 20260503235007 | 70 | 333 | 2.0 | 5.0 | 0.00 | 0.00 | 0.00 | 22 | 1011.7 |
| 20260503234528 | 70 | 168 | 1.0 | 2.0 | 0.00 | 0.00 | 0.00 | 21 | 1011.9 |
| 20260503234007 | 69 | 267 | 1.0 | 5.0 | 0.00 | 0.00 | 0.00 | 22 | 1011.9 |
| 20260503233503 | 69 | 226 | 1.0 | 6.0 | 0.00 | 0.00 | 0.00 | 22 | 1011.9 |
| 20260503233011 | 70 | 225 | 1.0 | 6.0 | 0.00 | 0.00 | 0.00 | 22 | 1012.0 |
| 20260503232506 | 70 | 273 | 1.0 | 4.0 | 0.00 | 0.00 | 0.00 | 21 | 1011.9 |
| 20260503232007 | 70 | 333 | 2.0 | 5.0 | 0.00 | 0.00 | 0.00 | 21 | 1011.5 |
| 20260503231522 | 70 | 336 | 1.0 | 5.0 | 0.00 | 0.00 | 0.00 | 21 | 1011.4 |
| 20260503231009 | 70 | 167 | 0.0 | 4.0 | 0.00 | 0.00 | 0.00 | 22 | 1011.5 |
| 20260503230510 | 70 | 190 | 1.0 | 7.0 | 0.00 | 0.00 | 0.00 | 22 | 1011.5 |
| 20260503230028 | 70 | 109 | 2.0 | 12.0 | 0.00 | 0.00 | 0.00 | 22 | 1011.5 |
| 20260503225503 | 70 | 172 | 2.0 | 13.0 | 0.00 | 0.00 | 0.00 | 22 | 1011.7 |
| 20260503225007 | 69 | 234 | 5.0 | 18.0 | 0.00 | 0.00 | 0.00 | 24 | 1011.7 |
| 20260503224515 | 69 | 89 | 7.0 | 18.0 | 0.00 | 0.00 | 0.00 | 22 | 1011.8 |
| 20260503224007 | 70 | 86 | 3.0 | 13.0 | 0.00 | 0.00 | 0.00 | 22 | 1011.9 |
| 20260503223509 | 70 | 255 | 5.0 | 15.0 | 0.00 | 0.00 | 0.00 | 20 | 1011.9 |
| 20260503223027 | 70 | 343 | 7.0 | 15.0 | 0.00 | 0.00 | 0.00 | 20 | 1011.6 |
| 20260503222507 | 71 | 327 | 3.0 | 11.0 | 0.00 | 0.00 | 0.00 | 19 | 1011.6 |
| 20260503222011 | 71 | 301 | 2.0 | 6.0 | 0.00 | 0.00 | 0.00 | 18 | 1011.7 |
| 20260503221507 | 71 | 339 | 1.0 | 10.0 | 0.00 | 0.00 | 0.00 | 18 | 1011.6 |
| 20260503221006 | 71 | 349 | 2.0 | 10.0 | 0.00 | 0.00 | 0.00 | 18 | 1011.7 |
| 20260503220507 | 71 | 5 | 2.0 | 9.0 | 0.00 | 0.00 | 0.00 | 18 | 1011.7 |
| 20260503220018 | 71 | 314 | 3.0 | 9.0 | 0.00 | 0.00 | 0.00 | 17 | 1011.7 |
| 20260503215510 | 71 | 349 | 3.0 | 10.0 | 0.00 | 0.00 | 0.00 | 17 | 1011.7 |
| 20260503215011 | 71 | 274 | 2.0 | 16.0 | 0.00 | 0.00 | 0.00 | 17 | 1011.8 |
| 20260503214525 | 72 | 327 | 10.0 | 16.0 | 0.00 | 0.00 | 0.00 | 17 | 1011.9 |
| 20260503214007 | 72 | 306 | 4.0 | 9.0 | 0.00 | 0.00 | 0.00 | 17 | 1012.0 |
| 20260503213506 | 73 | 316 | 3.0 | 9.0 | 0.00 | 0.00 | 0.00 | 16 | 1012.0 |
| 20260503213012 | 73 | 282 | 2.0 | 13.0 | 0.00 | 0.00 | 0.00 | 16 | 1011.9 |
| 20260503212507 | 73 | 269 | 6.0 | 12.0 | 0.00 | 0.00 | 0.00 | 16 | 1011.9 |
| 20260503212012 | 73 | 209 | 5.0 | 13.0 | 0.00 | 0.00 | 0.00 | 17 | 1011.9 |
| 20260503211523 | 73 | 244 | 7.0 | 13.0 | 0.00 | 0.00 | 0.00 | 16 | 1011.9 |
| 20260503211004 | 73 | 209 | 5.0 | 10.0 | 0.00 | 0.00 | 0.00 | 16 | 1012.1 |
| 20260503210505 | 73 | 196 | 3.0 | 11.0 | 0.00 | 0.00 | 0.00 | 16 | 1012.1 |
| 20260503210015 | 74 | 214 | 5.0 | 11.0 | 0.00 | 0.00 | 0.00 | 15 | 1012.2 |
| 20260503205504 | 75 | 240 | 2.0 | 9.0 | 0.00 | 0.00 | 0.00 | 16 | 1012.1 |
| 20260503205007 | 75 | 254 | 1.0 | 9.0 | 0.00 | 0.00 | 0.00 | 13 | 1012.2 |
| 20260503204517 | 75 | 205 | 4.0 | 9.0 | 0.00 | 0.00 | 0.00 | 13 | 1012.2 |
| 20260503204011 | 75 | 301 | 3.0 | 9.0 | 0.00 | 0.00 | 0.00 | 13 | 1012.4 |
| 20260503203511 | 74 | 187 | 4.0 | 9.0 | 0.00 | 0.00 | 0.00 | 14 | 1012.5 |
| 20260503203011 | 74 | 248 | 3.0 | 20.0 | 0.00 | 0.00 | 0.00 | 14 | 1012.7 |
| 20260503202504 | 75 | 333 | 5.0 | 20.0 | 0.00 | 0.00 | 0.00 | 14 | 1012.8 |
| 20260503202004 | 75 | 194 | 8.0 | 19.0 | 0.00 | 0.00 | 0.00 | 14 | 1011.6 |
| 20260503201512 | 75 | 263 | 6.0 | 18.0 | 0.00 | 0.00 | 0.00 | 14 | 1012.9 |
| 20260503201007 | 73 | 280 | 1.0 | 6.0 | 0.00 | 0.00 | 0.00 | 15 | 1012.9 |
| 20260503200510 | 73 | 349 | 3.0 | 6.0 | 0.00 | 0.00 | 0.00 | 15 | 1012.9 |
| 20260503200022 | 73 | 323 | 2.0 | 11.0 | 0.00 | 0.00 | 0.00 | 15 | 1012.9 |
| 20260503195510 | 72 | 248 | 1.0 | 11.0 | 0.00 | 0.00 | 0.00 | 15 | 1013.0 |
| 20260503195005 | 72 | 306 | 4.0 | 10.0 | 0.00 | 0.00 | 0.00 | 15 | 1013.0 |
| 20260503194509 | 73 | 341 | 2.0 | 14.0 | 0.00 | 0.00 | 0.00 | 15 | 1013.2 |
| 20260503194005 | 73 | 9 | 2.0 | 14.0 | 0.00 | 0.00 | 0.00 | 15 | 1013.1 |
| 20260503193506 | 73 | 341 | 3.0 | 10.0 | 0.00 | 0.00 | 0.00 | 15 | 1013.3 |
| 20260503193015 | 73 | 352 | 4.0 | 9.0 | 0.00 | 0.00 | 0.00 | 15 | 1013.3 |
| 20260503192507 | 73 | 303 | 4.0 | 8.0 | 0.00 | 0.00 | 0.00 | 15 | 1013.4 |
| 20260503192008 | 73 | 263 | 4.0 | 8.0 | 0.00 | 0.00 | 0.00 | 14 | 1013.6 |
| 20260503191526 | 74 | 323 | 2.0 | 9.0 | 0.00 | 0.00 | 0.00 | 14 | 1013.6 |
| 20260503191006 | 74 | 9 | 2.0 | 10.0 | 0.00 | 0.00 | 0.00 | 14 | 1013.7 |